Laredo, TX

6:03 AM CDT on June 23, 2017 (GMT -0500)
Laredo International

Weather History for KLRD - November, 2012

Change the Weather History Date:

Saturday, November 10, 2012

  Actual Average Record
Temperature  
Mean Temperature 78 °F 68 °F  
Max Temperature 87 °F 78 °F 96 °F (1935)
Min Temperature 69 °F 57 °F 30 °F (1977)
Degree Days  
Heating Degree Days 0 2  
Month to date heating degree days 0 17  
Since 1 July heating degree days 13 29  
Cooling Degree Days 13 5  
Month to date cooling degree days 130 62  
Year to date cooling degree days 5001 4191  
Growing Degree Days 28 (Base 50)    
Moisture  
Dew Point 62 °F    
Average Humidity 61    
Maximum Humidity 78    
Minimum Humidity 40    
Precipitation  
Precipitation 0.00 in 0.05 in 1.14 in (1957)
Month to date precipitation 0.00 0.47  
Year to date precipitation 8.79 18.60  
Sea Level Pressure  
Sea Level Pressure 29.90 in    
Wind  
Wind Speed 17 mph (SSE)    
Max Wind Speed 28 mph    
Max Gust Speed 32 mph    
Visibility 10 miles    
Events      
T = Trace of Precipitation, MM = Missing Value Source: NWS Daily Summary

Daily Weather History Graph

Daily Weather History Graph

Search for Another Location

Airport or City:

Trip Planner

Search our weather history database for the weather conditions in past years. The results will help you decide how hot, cold, wet, or windy it might be!

Date:

Astronomy

Nov. 10, 2012 Rise Set
Actual Time 6:55 AM CST 5:48 PM CST
Civil Twilight 6:30 AM CST 6:12 PM CST
Nautical Twilight 6:02 AM CST 6:40 PM CST
Astronomical Twilight 5:35 AM CST 7:08 PM CST
Moon 3:19 AM CST (11/10) 3:21 PM CST (11/10)
Length of Visible Light 11h 41m
Length of Day
10h 52m
Waning Crescent, 14% of the Moon is Illuminated
Nov 10
Waning Crescent
Nov 13
New
Nov 20
First Quarter
Nov 28
Full
Dec 6
Last Quarter

Hourly Weather History & Observations

Time (CST) Temp. Heat Index Dew Point Humidity Pressure Visibility Wind Dir Wind Speed Gust Speed Precip Events Conditions
12:56 AM 72.0 °F - 61.0 °F 68% 29.95 in 10.0 mi SSE 16.1 mph - N/A   Clear
1:56 AM 70.9 °F - 61.9 °F 73% 29.94 in 10.0 mi SSE 12.7 mph - N/A   Clear
2:56 AM 70.9 °F - 61.9 °F 73% 29.92 in 10.0 mi SSE 13.8 mph - N/A   Clear
3:56 AM 70.0 °F - 61.9 °F 75% 29.92 in 10.0 mi SSE 15.0 mph - N/A   Clear
4:56 AM 70.0 °F - 61.9 °F 75% 29.92 in 10.0 mi SSE 12.7 mph - N/A   Clear
5:56 AM 69.8 °F - 62.6 °F 78% 29.96 in 10.0 mi SE 11.5 mph - N/A   Clear
6:56 AM 70.0 °F - 61.9 °F 75% 29.94 in 10.0 mi SSE 12.7 mph - N/A   Clear
7:56 AM 70.0 °F - 63.0 °F 78% 29.96 in 10.0 mi SE 9.2 mph - N/A   Clear
8:56 AM 72.9 °F - 63.0 °F 71% 29.97 in 10.0 mi SSE 13.8 mph - N/A   Clear
9:56 AM 77.0 °F - 63.0 °F 62% 29.98 in 10.0 mi SSE 20.7 mph 26.5 mph N/A   Partly Cloudy
10:56 AM 79.9 °F - 63.0 °F 56% 29.96 in 10.0 mi SSE 18.4 mph 26.5 mph N/A   Partly Cloudy
11:56 AM 79.9 °F - 61.0 °F 52% 29.94 in 10.0 mi South 21.9 mph 27.6 mph N/A   Clear
12:56 PM 81.9 °F 82.2 °F 59.9 °F 47% 29.90 in 10.0 mi SSE 17.3 mph 26.5 mph N/A   Clear
1:56 PM 84.9 °F 85.0 °F 61.0 °F 44% 29.86 in 10.0 mi SSE 15.0 mph 26.5 mph N/A   Clear
2:56 PM 86.0 °F 86.1 °F 61.0 °F 43% 29.84 in 10.0 mi SSE 20.7 mph 24.2 mph N/A   Clear
3:56 PM 86.0 °F 85.4 °F 59.0 °F 40% 29.82 in 10.0 mi SE 21.9 mph - N/A   Clear
4:56 PM 84.9 °F 84.4 °F 59.0 °F 41% 29.82 in 10.0 mi SSE 13.8 mph - N/A   Clear
5:56 PM 82.9 °F 83.2 °F 59.9 °F 46% 29.82 in 10.0 mi SE 16.1 mph - N/A   Clear
6:56 PM 81.9 °F 83.1 °F 63.0 °F 53% 29.83 in 9.0 mi SE 18.4 mph - N/A   Clear
7:56 PM 79.9 °F - 63.0 °F 56% 29.84 in 10.0 mi SE 23.0 mph 29.9 mph N/A   Clear
8:56 PM 77.9 °F - 61.9 °F 58% 29.86 in 10.0 mi SSE 18.4 mph 29.9 mph N/A   Clear
9:56 PM 75.9 °F - 63.9 °F 66% 29.86 in 10.0 mi SSE 20.7 mph 28.8 mph N/A   Clear
10:56 PM 74.8 °F - 64.9 °F 71% 29.84 in 10.0 mi SSE 21.9 mph 31.1 mph N/A   Clear
11:56 PM 74.8 °F - 64.9 °F 71% 29.83 in 10.0 mi SSE 25.3 mph 31.1 mph N/A   Clear